Time,TemperatureF,DewpointF,PressureIn,WindDirection,WindDirectionDegrees,WindSpeedMPH,WindSpeedGustMPH,Humidity,HourlyPrecipIn,Conditions,Clouds,dailyrainin,SoftwareType,DateUTC
2013-03-21 00:02:00,34.0,29.0,-100.00,SSW,195,23.0,28.0,81,-99.99,,,-99.99,,2013-03-21 07:02:00,
2013-03-21 01:02:00,33.0,30.0,-100.00,South,190,24.0,29.0,88,-99.99,,,-99.99,,2013-03-21 08:02:00,
2013-03-21 01:12:00,33.0,30.0,-100.00,South,190,24.0,29.0,88,-99.99,,,-99.99,,2013-03-21 08:12:00,
2013-03-21 02:02:00,32.0,29.0,-100.00,SSW,195,17.0,24.0,88,-99.99,,,-99.99,,2013-03-21 09:02:00,
2013-03-21 02:11:00,32.0,29.0,-100.00,SSW,195,17.0,24.0,88,-99.99,,,-99.99,,2013-03-21 09:11:00,
2013-03-21 03:02:00,32.0,28.0,-100.00,South,185,21.0,25.0,84,-99.99,,,-99.99,,2013-03-21 10:02:00,
2013-03-21 03:10:00,31.0,27.0,-100.00,SSW,195,24.0,29.0,84,-99.99,,,-99.99,,2013-03-21 10:10:00,
2013-03-21 03:12:00,32.0,28.0,-100.00,South,185,21.0,25.0,84,-99.99,,,-99.99,,2013-03-21 10:12:00,
2013-03-21 04:02:00,31.0,27.0,-100.00,SSW,195,24.0,29.0,84,-99.99,,,-99.99,,2013-03-21 11:02:00,
2013-03-21 05:02:00,29.0,25.0,-100.00,SSW,195,23.0,32.0,84,-99.99,,,-99.99,,2013-03-21 12:02:00,
2013-03-21 05:12:00,29.0,25.0,-100.00,SSW,195,23.0,32.0,84,-99.99,,,-99.99,,2013-03-21 12:12:00,
2013-03-21 06:02:00,29.0,24.0,-100.00,South,190,17.0,22.0,81,-99.99,,,-99.99,,2013-03-21 13:02:00,
2013-03-21 06:12:00,29.0,24.0,-100.00,South,190,17.0,22.0,81,-99.99,,,-99.99,,2013-03-21 13:12:00,
2013-03-21 07:02:00,29.0,24.0,-100.00,SSW,195,17.0,21.0,81,-99.99,,,-99.99,,2013-03-21 14:02:00,
2013-03-21 07:10:00,29.0,25.0,-100.00,SSW,195,17.0,21.0,84,-99.99,,,-99.99,,2013-03-21 14:10:00,
2013-03-21 07:12:00,29.0,24.0,-100.00,SSW,195,17.0,21.0,81,-99.99,,,-99.99,,2013-03-21 14:12:00,
2013-03-21 08:03:00,29.0,25.0,-100.00,SSW,195,17.0,21.0,84,-99.99,,,-99.99,,2013-03-21 15:03:00,
2013-03-21 09:03:00,29.0,25.0,-100.00,SSW,200,18.0,23.0,84,-99.99,,,-99.99,,2013-03-21 16:03:00,
2013-03-21 09:10:00,30.0,26.0,-100.00,SSW,200,20.0,25.0,84,-99.99,,,-99.99,,2013-03-21 16:10:00,
2013-03-21 09:12:00,29.0,25.0,-100.00,SSW,200,18.0,23.0,84,-99.99,,,-99.99,,2013-03-21 16:12:00,
2013-03-21 10:02:00,30.0,26.0,-100.00,SSW,200,20.0,25.0,84,-99.99,,,-99.99,,2013-03-21 17:02:00,
2013-03-21 10:10:00,33.0,25.0,-100.00,SSW,200,22.0,28.0,72,-99.99,,,-99.99,,2013-03-21 17:10:00,
2013-03-21 11:02:00,33.0,25.0,-100.00,SSW,200,22.0,28.0,72,-99.99,,,-99.99,,2013-03-21 18:02:00,
2013-03-21 12:02:00,36.0,24.0,-100.00,SSW,205,18.0,25.0,61,-99.99,,,-99.99,,2013-03-21 19:02:00,
2013-03-21 12:10:00,37.0,20.0,-100.00,SW,220,24.0,30.0,49,-99.99,,,-99.99,,2013-03-21 19:10:00,
2013-03-21 12:12:00,36.0,24.0,-100.00,SSW,205,18.0,25.0,61,-99.99,,,-99.99,,2013-03-21 19:12:00,
2013-03-21 13:02:00,37.0,20.0,-100.00,SW,220,24.0,30.0,49,-99.99,,,-99.99,,2013-03-21 20:02:00,
2013-03-21 13:10:00,38.0,23.0,-100.00,SW,225,17.0,24.0,54,-99.99,,,-99.99,,2013-03-21 20:10:00,
2013-03-21 14:02:00,38.0,23.0,-100.00,SW,225,17.0,24.0,54,-99.99,,,-99.99,,2013-03-21 21:02:00,
2013-03-21 14:10:00,39.0,24.0,-100.00,SSW,205,17.0,21.0,54,-99.99,,,-99.99,,2013-03-21 21:10:00,
2013-03-21 15:02:00,39.0,24.0,-100.00,SSW,205,17.0,21.0,54,-99.99,,,-99.99,,2013-03-21 22:02:00,
2013-03-21 16:02:00,37.0,24.0,-100.00,SSW,205,18.0,25.0,58,-99.99,,,-99.99,,2013-03-21 23:02:00,
2013-03-21 16:10:00,36.0,24.0,-100.00,SSW,205,17.0,25.0,61,-99.99,,,-99.99,,2013-03-21 23:10:00,
2013-03-21 16:12:00,37.0,24.0,-100.00,SSW,205,18.0,25.0,58,-99.99,,,-99.99,,2013-03-21 23:12:00,
2013-03-21 17:02:00,36.0,24.0,-100.00,SSW,205,17.0,25.0,61,-99.99,,,-99.99,,2013-03-22 00:02:00,
2013-03-21 18:02:00,36.0,22.0,-100.00,WSW,250,21.0,30.0,56,-99.99,,,-99.99,,2013-03-22 01:02:00,
2013-03-21 18:10:00,34.0,24.0,-100.00,SSW,210,17.0,21.0,66,-99.99,,,-99.99,,2013-03-22 01:10:00,
2013-03-21 18:12:00,36.0,22.0,-100.00,WSW,250,21.0,30.0,56,-99.99,,,-99.99,,2013-03-22 01:12:00,
2013-03-21 19:02:00,34.0,24.0,-100.00,SSW,210,17.0,21.0,66,-99.99,,,-99.99,,2013-03-22 02:02:00,
2013-03-21 20:02:00,33.0,25.0,-100.00,South,180,7.0,12.0,72,-99.99,,,-99.99,,2013-03-22 03:02:00,
2013-03-21 20:10:00,33.0,25.0,-100.00,SW,220,2.0,5.0,72,-99.99,,,-99.99,,2013-03-22 03:10:00,
2013-03-21 20:12:00,33.0,25.0,-100.00,South,180,7.0,12.0,72,-99.99,,,-99.99,,2013-03-22 03:12:00,
2013-03-21 21:03:00,33.0,25.0,-100.00,SW,220,2.0,5.0,72,-99.99,,,-99.99,,2013-03-22 04:03:00,
2013-03-21 22:02:00,32.0,25.0,-100.00,SSE,150,6.0,9.0,75,-99.99,,,-99.99,,2013-03-22 05:02:00,
2013-03-21 22:12:00,32.0,25.0,-100.00,SSE,150,6.0,9.0,75,-99.99,,,-99.99,,2013-03-22 05:12:00,
2013-03-21 23:02:00,31.0,24.0,-100.00,South,180,8.0,9.0,74,-99.99,,,-99.99,,2013-03-22 06:02:00,
2013-03-21 23:12:00,31.0,24.0,-100.00,South,180,8.0,9.0,74,-99.99,,,-99.99,,2013-03-22 06:12:00,